Location: Barrio Las Umbrías
(40.4173°N, 4.8685°W)
Time: 12:07:55
(UTC+00:00)

Cosmos 2082 Rocket - Pass Details

Date: 17 August 2022
Orbit: 834 x 852 km, 71.0° (Epoch: 28 September)

Event Time Altitude Azimuth Distance (km) Brightness Sun altitude
Rises 21:33:21 0° 349° (N) 3,390 6.2 -23.5°
Reaches altitude 10° 21:36:39 10° 8° (N) 2,452 5.0 -23.9°
Maximum altitude 21:40:23 18° 50° (NE) 1,951 4.0 -24.4°
Enters shadow 21:41:12 17° 61° (ENE) 1,977 4.0 -24.5°
